Location: Avon School (historical)
(37.7514°N, 90.2201°W)
Time: 02:44:11
(UTC+00:00)

Vanguard 2 Rocket - Pass Details

Date: 21 November 2024
Orbit: 554 x 3296 km, 32.9° (Epoch: 03 December)

Event Time Altitude Azimuth Distance (km) Brightness Sun altitude
Exits shadow 11:39:38 - 245° (WSW) 4,245 9.9 -13.5°
Reaches altitude 10° 11:41:03 10° 243° (WSW) 3,864 9.7 -13.2°
Maximum altitude 11:51:52 66° 164° (SSE) 2,519 9.2 -11.2°
Drops below altitude 10° 12:09:49 10° 87° (E) 6,080 12.4 -7.8°
Sets 12:14:59 0° 86° (E) 7,237 12.9 -6.9°
